Location: Carite
(10.3909°N, 67.0102°W)
Time: 02:43:32
(UTC+00:00)

Daily predictions for brighter satellites

Satellite Brightness Start Highest point End
(mag) Time Altitude Azimuth Time Altitude Azimuth Time Altitude Azimuth
Intelsat 5-3 Rocket 3.8 00:04:03 10° WNW 00:08:56 85° SSW 00:11:58 47° ESE
Gbstr 26 Del rocket 4.0 00:05:28 10° SSW 00:10:50 60° SE 00:10:50 60° SE
Cosmos 1943 4.3 00:34:08 10° NW 00:39:22 40° WSW 00:40:16 37° SW
Intelsat 5-1 Rocket 4.0 00:22:28 10° WSW 00:40:16 56° NNW 00:41:41 51° N
H-2A R/B 4.0 00:48:52 22° WSW 00:49:44 24° W 00:53:38 10° NW
Milstar 3 Cent rocket 4.2 07:40:34 55° S 07:40:34 55° S 07:57:13 10° SE
Cosmos 1727 Rocket 4.1 08:18:43 63° N 08:18:43 63° N 08:23:57 10° N
Palapa 6 Rocket 4.1 08:22:21 72° WSW 08:22:57 76° SSW 08:30:54 10° ESE
ARIANE 5 DEB (SYLDA) 3.9 08:27:41 45° SE 08:27:41 45° SE 08:30:47 10° E
Hubble Space Telescope 1.8 08:29:49 43° E 08:29:49 43° E 08:32:45 10° ENE
ALOS 3.6 08:25:28 10° NNE 08:29:47 38° E 08:34:06 10° S
OAO 3 Rocket 3.4 08:32:01 67° NNE 08:32:01 67° NNE 08:36:21 10° NE
Meteor 1-27 Rocket 3.6 08:31:37 73° W 08:31:45 74° W 08:37:39 10° N
Cosmos 1484 Rocket 4.1 08:29:04 10° NNE 08:32:49 40° E 08:35:41 16° SSE
Cosmos 2360 Rocket 2.1 08:35:23 68° WNW 08:35:23 68° WNW 08:40:48 10° N
Ariane H10+ 4.4 08:38:02 21° S 08:38:02 21° S 08:41:23 10° SE
Delta 142 4.4 08:40:30 54° WNW 08:41:38 64° NNW 08:46:59 10° NE
Ariane H10 4.5 08:39:22 38° SW 08:41:58 56° S 09:28:40 10° E
Meteor 1-31 Rocket 3.8 08:40:36 10° NNE 08:44:17 45° E 08:48:01 10° S
Cosmos 2208 Rocket 4.0 08:49:08 52° WSW 08:49:52 57° WNW 08:55:01 10° N
Ariane H10+ 4.1 08:50:57 20° SSW 08:51:05 20° SSW 08:54:25 10° SSE
deb Chang Zheng 4 3.4 08:47:19 10° N 08:51:31 66° WNW 08:51:35 66° W
ARIANE 5 DEB (SYLDA) 4.2 08:51:20 27° S 08:51:50 29° S 08:56:49 10° ESE
Cosmos 2322 Rocket 4.2 08:55:32 12° NNW 08:55:32 12° NNW 08:56:08 10° NNW
METEOR-M 4.5 08:47:18 10° NNE 08:52:35 65° ESE 08:57:52 10° S
ARIANE 5 DEB (SYLDA) 4.0 08:48:56 29° WSW 08:53:40 49° S 08:58:35 10° ESE
ARIANE 5 R/B 3.3 08:53:39 38° SW 08:54:17 42° S 08:58:04 10° ESE
Timation 1 Rocket 4.2 08:50:53 10° NNW 08:56:49 65° WSW 09:02:45 10° S
IRIDIUM 104 4.4 08:51:59 10° NNW 08:57:01 52° W 09:02:04 10° SSW
Ariane H10 4.1 08:59:26 19° SSW 09:01:04 27° SSE 09:08:19 10° E
Cosmos 1666 2.7 08:58:27 10° N 09:02:12 78° E 09:05:56 10° S
FENGYUN 3A 3.5 08:58:26 10° N 09:03:48 74° WNW 09:09:12 10° SSW
Cosmos 1814 Rocket 4.5 09:06:52 33° W 09:07:40 35° WNW 09:12:23 10° N
Delta 202 4.5 09:07:57 22° NW 09:10:40 36° N 09:15:35 10° ENE
Cosmos 2263 Rocket 2.4 09:05:18 10° N 09:10:58 74° ENE 09:16:38 10° SSE
GPS 2-15 Rocket1 4.5 09:09:07 18° NW 09:11:41 30° N 09:15:45 10° ENE
USA 32 3.9 09:06:50 10° N 09:12:01 67° W 09:17:13 10° S
H-2A R/B (2) 3.3 09:10:05 26° W 09:13:19 61° SSW 09:42:48 10° SE
GEOS 3 Rocket 4.1 09:11:15 10° NE 09:16:30 63° ESE 09:21:39 10° SSW
Chandra Rocket (1) 4.2 09:06:59 10° NW 09:17:39 35° N 09:21:36 10° ENE
SWIFT 4.3 09:14:50 11° SSW 09:17:58 21° SSE 09:21:16 10° ESE
Cosmos 1862 Rocket 4.1 09:15:09 10° SSW 09:19:11 34° W 09:23:11 10° NNW
Cosmos 1733 Rocket 3.5 09:16:54 10° N 09:21:10 64° E 09:25:26 10° SSE
Intercosmos 25 4.3 09:15:10 10° SSW 09:22:23 60° W 09:26:49 10° N
ADEOS 4.3 09:18:18 10° NNW 09:22:44 29° WNW 09:27:13 10° SW
Cosmos 2219 Rocket 2.1 09:19:57 10° SSW 09:25:34 75° WNW 09:31:13 10° NNE
CZ-4B R/B 1.1 09:23:40 10° SSE 09:26:42 88° E 09:29:48 10° N
FALCON 9 DEB 4.1 09:23:42 10° SSW 09:26:45 43° ESE 09:29:46 10° NE
H-2A R/B 3.1 09:23:26 10° SSW 09:26:47 23° W 09:30:11 10° NW
Cosmos 2173 Rocket 4.0 09:21:10 10° N 09:27:32 89° W 09:33:55 10° S
Sakura Rocket 2.9 09:25:26 21° WNW 09:28:01 54° SSW 09:31:37 10° SE
Cosmos 2227 4.1 09:24:30 10° NNW 09:30:02 62° WSW 09:35:33 10° S
Delta 2 Rocket 3.9 09:29:05 21° WNW 09:30:26 28° NW 09:33:23 10° NNE
COSMOS 2428 2.6 09:26:18 10° SSW 09:31:58 77° WNW 09:37:40 10° NNE
ARIANE 5 R/B 4.2 09:13:27 16° WSW 09:32:12 40° SSW 09:37:05 10° SE
SJ-12 4.1 09:31:41 10° N 09:35:42 52° WNW 09:39:43 10° SSW
Cosmos 1689 Rocket 4.2 09:33:46 10° SE 09:36:24 31° ENE 09:39:03 10° NNE
SJ 16-02 2.0 09:34:23 10° NW 09:38:17 32° W 09:42:11 10° SSW
Cosmos 2237 Rocket 4.0 09:34:22 10° SSE 09:39:28 35° ESE 09:44:32 10° NE
ERS-2 3.2 09:37:00 10° SSW 09:40:01 24° W 09:43:02 10° NW
Cosmos 1743 3.5 09:37:45 10° N 09:41:29 56° E 09:45:13 10° SSE
CZ-3 R/B 3.6 09:21:15 10° SW 09:41:40 43° SSE 09:47:49 10° E
Cosmos 2333 Rocket 2.6 09:36:23 10° SW 09:41:49 44° WNW 09:47:16 10° N
Okean 1 4.0 09:40:03 10° SSW 09:43:40 32° W 09:47:16 10° NNW
ARIANE 5 R/B 4.0 09:46:01 10° S 09:46:37 11° SSE 09:47:18 10° SSE
Meteor 1-18 Rocket 4.3 09:41:14 10° SSW 09:46:39 52° W 09:52:01 10° N
Cosmos 2061 Rocket 4.2 09:41:23 10° N 09:47:49 86° E 09:54:12 10° S
Meteor 1-19 Rocket 4.3 09:46:49 10° SSW 09:52:00 49° W 09:57:15 10° N
COSMO-SKYMED 1 3.5 09:49:34 10° SSE 09:53:48 55° ENE 09:58:02 10° N
Cosmos 2016 Rocket 3.9 09:52:04 10° N 09:58:06 74° W 10:04:13 10° S
FUSE 4.0 09:54:30 10° WNW 09:59:53 73° SSW 10:05:16 10° ESE
Spot 2 4.3 09:56:30 10° N 10:00:19 43° WNW 10:04:14 10° SSW
GPS 2-12 Rocket1 3.6 09:57:05 10° SW 10:01:24 51° SSE 10:05:41 10° E
